Year,Month,Day,Hour,Minute,Value (Times are PST for temperature in C)
2017,08,04,00,00,20.70
2017,08,04,00,01,20.80
2017,08,04,00,02,20.70
2017,08,04,00,03,20.80
2017,08,04,00,04,20.80
2017,08,04,00,05,20.80
2017,08,04,00,06,20.80
2017,08,04,00,07,20.80
2017,08,04,00,08,20.80
2017,08,04,00,09,20.80
2017,08,04,00,10,20.80
2017,08,04,00,11,20.70
2017,08,04,00,12,20.70
2017,08,04,00,13,20.70
2017,08,04,00,14,20.60
2017,08,04,00,15,20.60
2017,08,04,00,16,20.60
2017,08,04,00,17,20.50
2017,08,04,00,18,20.50
2017,08,04,00,19,20.50
2017,08,04,00,20,20.40
2017,08,04,00,21,20.40
2017,08,04,00,22,20.40
2017,08,04,00,23,20.40
2017,08,04,00,24,20.30
2017,08,04,00,25,20.30
2017,08,04,00,26,20.20
2017,08,04,00,27,20.20
2017,08,04,00,28,20.10
2017,08,04,00,29,20.10
2017,08,04,00,30,20.10
2017,08,04,00,31,20.10
2017,08,04,00,32,20.10
2017,08,04,00,33,20.10
2017,08,04,00,34,20.20
2017,08,04,00,35,20.20
2017,08,04,00,36,20.20
2017,08,04,00,37,20.20
2017,08,04,00,38,20.20
2017,08,04,00,39,20.20
2017,08,04,00,40,20.20
2017,08,04,00,41,20.20
2017,08,04,00,42,20.20
2017,08,04,00,43,20.10
2017,08,04,00,44,20.10
2017,08,04,00,45,20.10
2017,08,04,00,46,20.10
2017,08,04,00,47,20.10
2017,08,04,00,48,20.10
2017,08,04,00,49,20.10
2017,08,04,00,50,20.10
2017,08,04,00,51,20.00
2017,08,04,00,52,20.00
2017,08,04,00,53,20.00
2017,08,04,00,54,20.00
2017,08,04,00,55,20.00
2017,08,04,00,56,20.00
2017,08,04,00,57,20.00
2017,08,04,00,58,20.00
2017,08,04,00,59,20.00
2017,08,04,01,00,20.00
2017,08,04,01,01,20.00
2017,08,04,01,02,20.00
2017,08,04,01,03,20.00
2017,08,04,01,04,20.10
2017,08,04,01,05,20.10
2017,08,04,01,06,20.10
2017,08,04,01,07,20.10
2017,08,04,01,08,20.10
2017,08,04,01,09,20.10
2017,08,04,01,10,20.10
2017,08,04,01,11,20.00
2017,08,04,01,12,20.00
2017,08,04,01,13,20.00
2017,08,04,01,14,19.90
2017,08,04,01,15,19.90
2017,08,04,01,16,19.90
2017,08,04,01,17,19.90
2017,08,04,01,18,19.90
2017,08,04,01,19,19.90
2017,08,04,01,20,19.90
2017,08,04,01,21,19.90
2017,08,04,01,22,19.90
2017,08,04,01,23,19.90
2017,08,04,01,24,19.80
2017,08,04,01,25,19.80
2017,08,04,01,26,19.80
2017,08,04,01,27,19.70
2017,08,04,01,28,19.60
2017,08,04,01,29,19.50
2017,08,04,01,30,19.40
2017,08,04,01,31,19.30
2017,08,04,01,32,19.20
2017,08,04,01,33,19.20
2017,08,04,01,34,19.20
2017,08,04,01,35,19.20
2017,08,04,01,36,19.10
2017,08,04,01,37,19.20
2017,08,04,01,38,19.20
2017,08,04,01,39,19.20
2017,08,04,01,40,19.20
2017,08,04,01,41,19.20
2017,08,04,01,42,19.20
2017,08,04,01,43,19.20
2017,08,04,01,44,19.20
2017,08,04,01,45,19.20
2017,08,04,01,46,19.10
2017,08,04,01,47,19.10
2017,08,04,01,48,19.10
2017,08,04,01,49,19.10
2017,08,04,01,50,19.10
2017,08,04,01,51,19.00
2017,08,04,01,52,19.00
2017,08,04,01,53,18.90
2017,08,04,01,54,18.90
2017,08,04,01,55,18.80
2017,08,04,01,56,18.80
2017,08,04,01,57,18.80
2017,08,04,01,58,18.70
2017,08,04,01,59,18.70
2017,08,04,02,00,18.60
2017,08,04,02,01,18.50
2017,08,04,02,02,18.50
2017,08,04,02,03,18.50
2017,08,04,02,04,18.40
2017,08,04,02,05,18.40
2017,08,04,02,06,18.40
2017,08,04,02,07,18.40
2017,08,04,02,08,18.40
2017,08,04,02,09,18.40
2017,08,04,02,10,18.50
2017,08,04,02,11,18.50
2017,08,04,02,12,18.50
2017,08,04,02,13,18.60
2017,08,04,02,14,18.60
2017,08,04,02,15,18.70
2017,08,04,02,16,18.70
2017,08,04,02,17,18.70
2017,08,04,02,18,18.70
2017,08,04,02,19,18.70
2017,08,04,02,20,18.70
2017,08,04,02,21,18.70
2017,08,04,02,22,18.70
2017,08,04,02,23,18.70
2017,08,04,02,24,18.70
2017,08,04,02,25,18.70
2017,08,04,02,26,18.70
2017,08,04,02,27,18.70
2017,08,04,02,28,18.70
2017,08,04,02,29,18.70
2017,08,04,02,30,18.70
2017,08,04,02,31,18.70
2017,08,04,02,32,18.70
2017,08,04,02,33,18.70
2017,08,04,02,34,18.80
2017,08,04,02,35,18.80
2017,08,04,02,36,18.80
2017,08,04,02,37,18.80
2017,08,04,02,38,18.80
2017,08,04,02,39,18.80
2017,08,04,02,40,18.80
2017,08,04,02,41,18.80
2017,08,04,02,42,18.80
2017,08,04,02,43,18.80
2017,08,04,02,44,18.80
2017,08,04,02,45,18.80
2017,08,04,02,46,18.80
2017,08,04,02,47,18.80
2017,08,04,02,48,18.70
2017,08,04,02,49,18.70
2017,08,04,02,50,18.70
2017,08,04,02,51,18.70
2017,08,04,02,52,18.70
2017,08,04,02,53,18.60
2017,08,04,02,54,18.60
2017,08,04,02,55,18.60
2017,08,04,02,56,18.60
2017,08,04,02,57,18.60
2017,08,04,02,58,18.60
2017,08,04,02,59,18.60
2017,08,04,03,00,18.60
2017,08,04,03,01,18.60
2017,08,04,03,02,18.60
2017,08,04,03,03,18.50
2017,08,04,03,04,18.50
2017,08,04,03,05,18.60
2017,08,04,03,06,18.60
2017,08,04,03,07,18.60
2017,08,04,03,08,18.50
2017,08,04,03,09,18.50
2017,08,04,03,10,18.50
2017,08,04,03,11,18.50
2017,08,04,03,12,18.50
2017,08,04,03,13,18.40
2017,08,04,03,14,18.40
2017,08,04,03,15,18.40
2017,08,04,03,16,18.40
2017,08,04,03,17,18.40
2017,08,04,03,18,18.30
2017,08,04,03,19,18.30
2017,08,04,03,20,18.30
2017,08,04,03,21,18.30
2017,08,04,03,22,18.30
2017,08,04,03,23,18.30
2017,08,04,03,24,18.30
2017,08,04,03,25,18.20
2017,08,04,03,26,18.20
2017,08,04,03,27,18.20
2017,08,04,03,28,18.20
2017,08,04,03,29,18.10
2017,08,04,03,30,18.10
2017,08,04,03,31,18.00
2017,08,04,03,32,18.00
2017,08,04,03,33,17.90
2017,08,04,03,34,17.90
2017,08,04,03,35,17.90
2017,08,04,03,36,17.80
2017,08,04,03,37,17.80
2017,08,04,03,38,17.70
2017,08,04,03,39,17.70
2017,08,04,03,40,17.60
2017,08,04,03,41,17.50
2017,08,04,03,42,17.40
2017,08,04,03,43,17.40
2017,08,04,03,44,17.30
2017,08,04,03,45,17.30
2017,08,04,03,46,17.20
2017,08,04,03,47,17.20
2017,08,04,03,48,17.20
2017,08,04,03,49,17.10
2017,08,04,03,50,17.10
2017,08,04,03,51,17.00
2017,08,04,03,52,16.90
2017,08,04,03,53,16.90
2017,08,04,03,54,16.90
2017,08,04,03,55,16.80
2017,08,04,03,56,16.80
2017,08,04,03,57,16.80
2017,08,04,03,58,16.70
2017,08,04,03,59,16.70
2017,08,04,04,00,16.70
2017,08,04,04,01,16.70
2017,08,04,04,02,16.60
2017,08,04,04,03,16.60
2017,08,04,04,04,16.60
2017,08,04,04,05,16.50
2017,08,04,04,06,16.50
2017,08,04,04,07,16.50
2017,08,04,04,08,16.40
2017,08,04,04,09,16.40
2017,08,04,04,10,16.40
2017,08,04,04,11,16.30
2017,08,04,04,12,16.30
2017,08,04,04,13,16.20
2017,08,04,04,14,16.20
2017,08,04,04,15,16.20
2017,08,04,04,16,16.10
2017,08,04,04,17,16.10
2017,08,04,04,18,16.10
2017,08,04,04,19,16.00
2017,08,04,04,20,16.00
2017,08,04,04,21,15.90
2017,08,04,04,22,15.90
2017,08,04,04,23,15.90
2017,08,04,04,24,15.80
2017,08,04,04,25,15.80
2017,08,04,04,26,15.70
2017,08,04,04,27,15.70
2017,08,04,04,28,15.70
2017,08,04,04,29,15.70
2017,08,04,04,30,15.70
2017,08,04,04,31,15.60
2017,08,04,04,32,15.60
2017,08,04,04,33,15.60
2017,08,04,04,34,15.60
2017,08,04,04,35,15.60
2017,08,04,04,36,15.60
2017,08,04,04,37,15.60
2017,08,04,04,38,15.60
2017,08,04,04,39,15.60
2017,08,04,04,40,15.50
2017,08,04,04,41,15.50
2017,08,04,04,42,15.50
2017,08,04,04,43,15.50
2017,08,04,04,44,15.40
2017,08,04,04,45,15.40
2017,08,04,04,46,15.40
2017,08,04,04,47,15.40
2017,08,04,04,48,15.40
2017,08,04,04,49,15.30
2017,08,04,04,50,15.30
2017,08,04,04,51,15.30
2017,08,04,04,52,15.30
2017,08,04,04,53,15.30
2017,08,04,04,54,15.30
2017,08,04,04,55,15.20
2017,08,04,04,56,15.20
2017,08,04,04,57,15.20
2017,08,04,04,58,15.20
2017,08,04,04,59,15.20
2017,08,04,05,00,15.20
2017,08,04,05,01,15.10
2017,08,04,05,02,15.10
2017,08,04,05,03,15.10
2017,08,04,05,04,15.10
2017,08,04,05,05,15.10
2017,08,04,05,06,15.10
2017,08,04,05,07,15.10
2017,08,04,05,08,15.00
2017,08,04,05,09,15.00
2017,08,04,05,10,15.00
2017,08,04,05,11,15.00
2017,08,04,05,12,15.00
2017,08,04,05,13,15.00
2017,08,04,05,14,15.00
2017,08,04,05,15,15.00
2017,08,04,05,16,15.00
2017,08,04,05,17,15.00
2017,08,04,05,18,15.00
2017,08,04,05,19,15.00
2017,08,04,05,20,15.00
2017,08,04,05,21,14.90
2017,08,04,05,22,14.90
2017,08,04,05,23,14.90
2017,08,04,05,24,14.90
2017,08,04,05,25,14.90
2017,08,04,05,26,14.90
2017,08,04,05,27,14.90
2017,08,04,05,28,14.90
2017,08,04,05,29,14.90
2017,08,04,05,30,14.80
2017,08,04,05,31,14.80
2017,08,04,05,32,14.80
2017,08,04,05,33,14.80
2017,08,04,05,34,14.80
2017,08,04,05,35,14.80
2017,08,04,05,36,14.80
2017,08,04,05,37,14.70
2017,08,04,05,38,14.70
2017,08,04,05,39,14.70
2017,08,04,05,40,14.70
2017,08,04,05,41,14.70
2017,08,04,05,42,14.60
2017,08,04,05,43,14.60
2017,08,04,05,44,14.60
2017,08,04,05,45,14.60
2017,08,04,05,46,14.60
2017,08,04,05,47,14.60
2017,08,04,05,48,14.60
2017,08,04,05,49,14.50
2017,08,04,05,50,14.60
2017,08,04,05,51,14.60
2017,08,04,05,52,14.50
2017,08,04,05,53,14.60
2017,08,04,05,54,14.60
2017,08,04,05,55,14.60
2017,08,04,05,56,14.60
2017,08,04,05,57,14.60
2017,08,04,05,58,14.60
2017,08,04,05,59,14.60
2017,08,04,06,00,14.60
2017,08,04,06,01,14.60
2017,08,04,06,02,14.60
2017,08,04,06,03,14.60
2017,08,04,06,04,14.60
2017,08,04,06,05,14.60
2017,08,04,06,06,14.60
2017,08,04,06,07,14.60
2017,08,04,06,08,14.60
2017,08,04,06,09,14.50
2017,08,04,06,10,14.50
2017,08,04,06,11,14.50
2017,08,04,06,12,14.50
2017,08,04,06,13,14.50
2017,08,04,06,14,14.50
2017,08,04,06,15,14.40
2017,08,04,06,16,14.40
2017,08,04,06,17,14.40
2017,08,04,06,18,14.40
2017,08,04,06,19,14.40
2017,08,04,06,20,14.40
2017,08,04,06,21,14.40
2017,08,04,06,22,14.40
2017,08,04,06,23,14.40
2017,08,04,06,24,14.40
2017,08,04,06,25,14.40
2017,08,04,06,26,14.40
2017,08,04,06,27,14.40
2017,08,04,06,28,14.40
2017,08,04,06,29,14.30
2017,08,04,06,30,14.30
2017,08,04,06,31,14.30
2017,08,04,06,32,14.30
2017,08,04,06,33,14.30
2017,08,04,06,34,14.30
2017,08,04,06,35,14.30
2017,08,04,06,36,14.30
2017,08,04,06,37,14.30
2017,08,04,06,38,14.30
2017,08,04,06,39,14.30
2017,08,04,06,40,14.30
2017,08,04,06,41,14.30
2017,08,04,06,42,14.30
2017,08,04,06,43,14.30
2017,08,04,06,44,14.30
2017,08,04,06,45,14.30
2017,08,04,06,46,14.30
2017,08,04,06,47,14.30
2017,08,04,06,48,14.40
2017,08,04,06,49,14.40
2017,08,04,06,50,14.40
2017,08,04,06,51,14.40
2017,08,04,06,52,14.40
2017,08,04,06,53,14.40
2017,08,04,06,54,14.40
2017,08,04,06,55,14.40
2017,08,04,06,56,14.50
2017,08,04,06,57,14.50
2017,08,04,06,58,14.50
2017,08,04,06,59,14.50
2017,08,04,07,00,14.50
2017,08,04,07,01,14.50
2017,08,04,07,02,14.60
2017,08,04,07,03,14.60
2017,08,04,07,04,14.60
2017,08,04,07,05,14.60
2017,08,04,07,06,14.60
2017,08,04,07,07,14.70
2017,08,04,07,08,14.70
2017,08,04,07,09,14.70
2017,08,04,07,10,14.70
2017,08,04,07,11,14.80
2017,08,04,07,12,14.80
2017,08,04,07,13,14.80
2017,08,04,07,14,14.80
2017,08,04,07,15,14.90
2017,08,04,07,16,14.90
2017,08,04,07,17,14.90
2017,08,04,07,18,15.00
2017,08,04,07,19,15.00
2017,08,04,07,20,15.10
2017,08,04,07,21,15.10
2017,08,04,07,22,15.20
2017,08,04,07,23,15.30
2017,08,04,07,24,15.30
2017,08,04,07,25,15.30
2017,08,04,07,26,15.40
2017,08,04,07,27,15.40
2017,08,04,07,28,15.50
2017,08,04,07,29,15.50
2017,08,04,07,30,15.60
2017,08,04,07,31,15.60
2017,08,04,07,32,15.70
2017,08,04,07,33,15.70
2017,08,04,07,34,15.80
2017,08,04,07,35,15.80
2017,08,04,07,36,15.90
2017,08,04,07,37,16.00
2017,08,04,07,38,16.00
2017,08,04,07,39,16.10
2017,08,04,07,40,16.20
2017,08,04,07,41,16.30
2017,08,04,07,42,16.30
2017,08,04,07,43,16.40
2017,08,04,07,44,16.50
2017,08,04,07,45,16.50
2017,08,04,07,46,16.60
2017,08,04,07,47,16.70
2017,08,04,07,48,16.80
2017,08,04,07,49,16.90
2017,08,04,07,50,16.90
2017,08,04,07,51,17.00
2017,08,04,07,52,17.10
2017,08,04,07,53,17.10
2017,08,04,07,54,17.20
2017,08,04,07,55,17.30
2017,08,04,07,56,17.30
2017,08,04,07,57,17.30
2017,08,04,07,58,17.40
2017,08,04,07,59,17.40
2017,08,04,08,00,17.50
2017,08,04,08,01,17.50
2017,08,04,08,02,17.50
2017,08,04,08,03,17.60
2017,08,04,08,04,17.60
2017,08,04,08,05,17.60
2017,08,04,08,06,17.60
2017,08,04,08,07,17.70
2017,08,04,08,08,17.70
2017,08,04,08,09,17.70
2017,08,04,08,10,17.70
2017,08,04,08,11,17.70
2017,08,04,08,12,17.70
2017,08,04,08,13,17.70
2017,08,04,08,14,17.80
2017,08,04,08,15,17.80
2017,08,04,08,16,17.80
2017,08,04,08,17,17.80
2017,08,04,08,18,17.80
2017,08,04,08,19,17.80
2017,08,04,08,20,17.80
2017,08,04,08,21,17.80
2017,08,04,08,22,17.80
2017,08,04,08,23,17.80
2017,08,04,08,24,17.80
2017,08,04,08,25,17.80
2017,08,04,08,26,17.80
2017,08,04,08,27,17.80
2017,08,04,08,28,17.80
2017,08,04,08,29,17.90
2017,08,04,08,30,17.80
2017,08,04,08,31,17.80
2017,08,04,08,32,17.90
2017,08,04,08,33,17.90
2017,08,04,08,34,17.90
2017,08,04,08,35,17.90
2017,08,04,08,36,17.90
2017,08,04,08,37,18.00
2017,08,04,08,38,17.90
2017,08,04,08,39,18.00
2017,08,04,08,40,18.00
2017,08,04,08,41,18.10
2017,08,04,08,42,18.10
2017,08,04,08,43,18.10
2017,08,04,08,44,18.10
2017,08,04,08,45,18.10
2017,08,04,08,46,18.20
2017,08,04,08,47,18.20
2017,08,04,08,48,18.20
2017,08,04,08,49,18.20
2017,08,04,08,50,18.30
2017,08,04,08,51,18.30
2017,08,04,08,52,18.30
2017,08,04,08,53,18.30
2017,08,04,08,54,18.30
2017,08,04,08,55,18.40
2017,08,04,08,56,18.40
2017,08,04,08,57,18.50
2017,08,04,08,58,18.50
2017,08,04,08,59,18.50
2017,08,04,09,00,18.60
2017,08,04,09,01,18.60
2017,08,04,09,02,18.60
2017,08,04,09,03,18.70
2017,08,04,09,04,18.70
2017,08,04,09,05,18.70
2017,08,04,09,06,18.70
2017,08,04,09,07,18.70
2017,08,04,09,08,18.70
2017,08,04,09,09,18.80
2017,08,04,09,10,18.80
2017,08,04,09,11,18.80
2017,08,04,09,12,18.80
2017,08,04,09,13,18.80
2017,08,04,09,14,18.80
2017,08,04,09,15,18.80
2017,08,04,09,16,18.90
2017,08,04,09,17,18.90
2017,08,04,09,18,18.90
2017,08,04,09,19,18.90
2017,08,04,09,20,18.90
2017,08,04,09,21,19.00
2017,08,04,09,22,19.00
2017,08,04,09,23,19.00
2017,08,04,09,24,19.00
2017,08,04,09,25,19.00
2017,08,04,09,26,19.00
2017,08,04,09,27,19.10
2017,08,04,09,28,19.10
2017,08,04,09,29,19.10
2017,08,04,09,30,19.10
2017,08,04,09,31,19.10
2017,08,04,09,32,19.20
2017,08,04,09,33,19.20
2017,08,04,09,34,19.20
2017,08,04,09,35,19.30
2017,08,04,09,36,19.30
2017,08,04,09,37,19.30
2017,08,04,09,38,19.40
2017,08,04,09,39,19.40
2017,08,04,09,40,19.40
2017,08,04,09,41,19.40
2017,08,04,09,42,19.50
2017,08,04,09,43,19.50
2017,08,04,09,44,19.60
2017,08,04,09,45,19.60
2017,08,04,09,46,19.60
2017,08,04,09,47,19.60
2017,08,04,09,48,19.60
2017,08,04,09,49,19.70
2017,08,04,09,50,19.70
2017,08,04,09,51,19.70
2017,08,04,09,52,19.70
2017,08,04,09,53,19.70
2017,08,04,09,54,19.80
2017,08,04,09,55,19.80
2017,08,04,09,56,19.80
2017,08,04,09,57,19.90
2017,08,04,09,58,19.90
2017,08,04,09,59,19.90
2017,08,04,10,00,19.90
2017,08,04,10,01,20.00
2017,08,04,10,02,20.00
2017,08,04,10,03,20.00
2017,08,04,10,04,20.00
2017,08,04,10,05,20.00
2017,08,04,10,06,20.10
2017,08,04,10,07,20.10
2017,08,04,10,08,20.10
2017,08,04,10,09,20.10
2017,08,04,10,10,20.20
2017,08,04,10,11,20.20
2017,08,04,10,12,20.20
2017,08,04,10,13,20.30
2017,08,04,10,14,20.30
2017,08,04,10,15,20.30
2017,08,04,10,16,20.30
2017,08,04,10,17,20.30
2017,08,04,10,18,20.40
2017,08,04,10,19,20.40
2017,08,04,10,20,20.40
2017,08,04,10,21,20.50
2017,08,04,10,22,20.50
2017,08,04,10,23,20.60
2017,08,04,10,24,20.60
2017,08,04,10,25,20.70
2017,08,04,10,26,20.70
2017,08,04,10,27,20.70
2017,08,04,10,28,20.60
2017,08,04,10,29,20.60
2017,08,04,10,30,20.50
2017,08,04,10,31,20.50
2017,08,04,10,32,20.50
2017,08,04,10,33,20.50
2017,08,04,10,34,20.60
2017,08,04,10,35,20.60
2017,08,04,10,36,20.60
2017,08,04,10,37,20.70
2017,08,04,10,38,20.70
2017,08,04,10,39,20.70
2017,08,04,10,40,20.70
2017,08,04,10,41,20.70
2017,08,04,10,42,20.70
2017,08,04,10,43,20.80
2017,08,04,10,44,20.80
2017,08,04,10,45,20.80
2017,08,04,10,46,20.80
2017,08,04,10,47,20.80
2017,08,04,10,48,20.80
2017,08,04,10,49,20.80
2017,08,04,10,50,20.80
2017,08,04,10,51,20.90
2017,08,04,10,52,20.90
2017,08,04,10,53,20.90
2017,08,04,10,54,21.00
2017,08,04,10,55,21.00
2017,08,04,10,56,21.00
2017,08,04,10,57,21.00
2017,08,04,10,58,21.00
2017,08,04,10,59,21.00
2017,08,04,11,00,21.10
2017,08,04,11,01,21.10
2017,08,04,11,02,21.20
2017,08,04,11,03,21.20
2017,08,04,11,04,21.30
2017,08,04,11,05,21.30
2017,08,04,11,06,21.40
2017,08,04,11,07,21.40
2017,08,04,11,08,21.50
2017,08,04,11,09,21.50
2017,08,04,11,10,21.60
2017,08,04,11,11,21.60
2017,08,04,11,12,21.70
2017,08,04,11,13,21.70
2017,08,04,11,14,21.70
2017,08,04,11,15,21.80
2017,08,04,11,16,21.80
2017,08,04,11,17,21.90
2017,08,04,11,18,21.90
2017,08,04,11,19,21.90
2017,08,04,11,20,21.90
2017,08,04,11,21,22.00
2017,08,04,11,22,22.00
2017,08,04,11,23,22.10
2017,08,04,11,24,22.10
2017,08,04,11,25,22.20
2017,08,04,11,26,22.20
2017,08,04,11,27,22.20
2017,08,04,11,28,22.30
2017,08,04,11,29,22.30
2017,08,04,11,30,22.40
2017,08,04,11,31,22.40
2017,08,04,11,32,22.40
2017,08,04,11,33,22.40
2017,08,04,11,34,22.30
2017,08,04,11,35,22.30
2017,08,04,11,36,22.20
2017,08,04,11,37,22.10
2017,08,04,11,38,22.10
2017,08,04,11,39,22.00
2017,08,04,11,40,22.00
2017,08,04,11,41,21.90
2017,08,04,11,42,21.90
2017,08,04,11,43,22.00
2017,08,04,11,44,22.00
2017,08,04,11,45,22.10
2017,08,04,11,46,22.10
2017,08,04,11,47,22.00
2017,08,04,11,48,22.00
2017,08,04,11,49,22.00
2017,08,04,11,50,22.00
2017,08,04,11,51,22.10
2017,08,04,11,52,22.10
2017,08,04,11,53,22.10
2017,08,04,11,54,22.20
2017,08,04,11,55,22.20
2017,08,04,11,56,22.30
2017,08,04,11,57,22.40
2017,08,04,11,58,22.50
2017,08,04,11,59,22.60
2017,08,04,12,00,22.70
2017,08,04,12,01,22.70
2017,08,04,12,02,22.80
2017,08,04,12,03,22.80
2017,08,04,12,04,22.90
2017,08,04,12,05,22.90
2017,08,04,12,06,23.00
2017,08,04,12,07,23.00
2017,08,04,12,08,23.10
2017,08,04,12,09,23.10
2017,08,04,12,10,23.20
2017,08,04,12,11,23.20
2017,08,04,12,12,23.20
2017,08,04,12,13,23.30
2017,08,04,12,14,23.20
2017,08,04,12,15,23.30
2017,08,04,12,16,23.30
2017,08,04,12,17,23.30
2017,08,04,12,18,23.30
2017,08,04,12,19,23.30
2017,08,04,12,20,23.30
2017,08,04,12,21,23.40
2017,08,04,12,22,23.40
2017,08,04,12,23,23.50
2017,08,04,12,24,23.60
2017,08,04,12,25,23.70
2017,08,04,12,26,23.70
2017,08,04,12,27,23.70
2017,08,04,12,28,23.70
2017,08,04,12,29,23.70
2017,08,04,12,30,23.70
2017,08,04,12,31,23.80
2017,08,04,12,32,23.80
2017,08,04,12,33,23.80
2017,08,04,12,34,23.80
2017,08,04,12,35,23.90
2017,08,04,12,36,24.00
2017,08,04,12,37,24.00
2017,08,04,12,38,24.10
2017,08,04,12,39,24.20
2017,08,04,12,40,24.20
2017,08,04,12,41,24.20
2017,08,04,12,42,24.20
2017,08,04,12,43,24.20
2017,08,04,12,44,24.30
2017,08,04,12,45,24.40
2017,08,04,12,46,24.40
2017,08,04,12,47,24.50
2017,08,04,12,48,24.50
2017,08,04,12,49,24.50
2017,08,04,12,50,24.50
2017,08,04,12,51,24.60
2017,08,04,12,52,24.60
2017,08,04,12,53,24.70
2017,08,04,12,54,24.70
2017,08,04,12,55,24.80
2017,08,04,12,56,24.70
2017,08,04,12,57,24.70
2017,08,04,12,58,24.70
2017,08,04,12,59,24.70
2017,08,04,13,00,24.70
2017,08,04,13,01,24.70
2017,08,04,13,02,24.80
2017,08,04,13,03,24.80
2017,08,04,13,04,24.90
2017,08,04,13,05,24.80
2017,08,04,13,06,24.80
2017,08,04,13,07,24.80
2017,08,04,13,08,24.80
2017,08,04,13,09,24.80
2017,08,04,13,10,24.80
2017,08,04,13,11,24.80
2017,08,04,13,12,24.80
2017,08,04,13,13,24.70
2017,08,04,13,14,24.80
2017,08,04,13,15,24.70
2017,08,04,13,16,24.70
2017,08,04,13,17,24.70
2017,08,04,13,18,24.70
2017,08,04,13,19,24.70
2017,08,04,13,20,24.60
2017,08,04,13,21,24.60
2017,08,04,13,22,24.60
2017,08,04,13,23,24.60
2017,08,04,13,24,24.60
2017,08,04,13,25,24.60
2017,08,04,13,26,24.60
2017,08,04,13,27,24.60
2017,08,04,13,28,24.60
2017,08,04,13,29,24.60
2017,08,04,13,30,24.70
2017,08,04,13,31,24.70
2017,08,04,13,32,24.80
2017,08,04,13,33,24.80
2017,08,04,13,34,24.80
2017,08,04,13,35,24.90
2017,08,04,13,36,24.90
2017,08,04,13,37,25.00
2017,08,04,13,38,25.00
2017,08,04,13,39,25.00
2017,08,04,13,40,25.10
2017,08,04,13,41,25.10
2017,08,04,13,42,25.00
2017,08,04,13,43,25.00
2017,08,04,13,44,25.00
2017,08,04,13,45,24.90
2017,08,04,13,46,24.90
2017,08,04,13,47,25.00
2017,08,04,13,48,25.00
2017,08,04,13,49,25.10
2017,08,04,13,50,25.10
2017,08,04,13,51,25.20
2017,08,04,13,52,25.30
2017,08,04,13,53,25.30
2017,08,04,13,54,25.40
2017,08,04,13,55,25.40
2017,08,04,13,56,25.50
2017,08,04,13,57,25.60
2017,08,04,13,58,25.60
2017,08,04,13,59,25.70
2017,08,04,14,00,25.70
2017,08,04,14,01,25.70
2017,08,04,14,02,25.70
2017,08,04,14,03,25.70
2017,08,04,14,04,25.80
2017,08,04,14,05,25.70
2017,08,04,14,06,25.70
2017,08,04,14,07,25.70
2017,08,04,14,08,25.70
2017,08,04,14,09,25.80
2017,08,04,14,10,25.90
2017,08,04,14,11,26.00
2017,08,04,14,12,26.10
2017,08,04,14,13,26.10
2017,08,04,14,14,26.10
2017,08,04,14,15,26.10
2017,08,04,14,16,26.00
2017,08,04,14,17,26.00
2017,08,04,14,18,26.00
2017,08,04,14,19,26.00
2017,08,04,14,20,26.00
2017,08,04,14,21,25.90
2017,08,04,14,22,25.90
2017,08,04,14,23,25.90
2017,08,04,14,24,26.00
2017,08,04,14,25,26.10
2017,08,04,14,26,26.20
2017,08,04,14,27,26.30
2017,08,04,14,28,26.40
2017,08,04,14,29,26.40
2017,08,04,14,30,26.50
2017,08,04,14,31,26.60
2017,08,04,14,32,26.60
2017,08,04,14,33,26.60
2017,08,04,14,34,26.70
2017,08,04,14,35,26.70
2017,08,04,14,36,26.70
2017,08,04,14,37,26.70
2017,08,04,14,38,26.70
2017,08,04,14,39,26.70
2017,08,04,14,40,26.80
2017,08,04,14,41,26.80
2017,08,04,14,42,26.80
2017,08,04,14,43,26.80
2017,08,04,14,44,26.80
2017,08,04,14,45,26.80
2017,08,04,14,46,26.80
2017,08,04,14,47,26.80
2017,08,04,14,48,26.80
2017,08,04,14,49,26.80
2017,08,04,14,50,26.80
2017,08,04,14,51,26.80
2017,08,04,14,52,26.80
2017,08,04,14,53,26.80
2017,08,04,14,54,26.90
2017,08,04,14,55,26.90
2017,08,04,14,56,26.90
2017,08,04,14,57,26.90
2017,08,04,14,58,26.90
2017,08,04,14,59,26.90
2017,08,04,15,00,26.90
2017,08,04,15,01,26.80
2017,08,04,15,02,26.80
2017,08,04,15,03,26.80
2017,08,04,15,04,26.80
2017,08,04,15,05,26.70
2017,08,04,15,06,26.60
2017,08,04,15,07,26.50
2017,08,04,15,08,26.40
2017,08,04,15,09,26.30
2017,08,04,15,10,26.30
2017,08,04,15,11,26.20
2017,08,04,15,12,26.20
2017,08,04,15,13,26.20
2017,08,04,15,14,26.20
2017,08,04,15,15,26.10
2017,08,04,15,16,26.10
2017,08,04,15,17,26.10
2017,08,04,15,18,26.10
2017,08,04,15,19,26.10
2017,08,04,15,20,26.10
2017,08,04,15,21,26.20
2017,08,04,15,22,26.20
2017,08,04,15,23,26.20
2017,08,04,15,24,26.20
2017,08,04,15,25,26.20
2017,08,04,15,26,26.20
2017,08,04,15,27,26.20
2017,08,04,15,28,26.20
2017,08,04,15,29,26.20
2017,08,04,15,30,26.10
2017,08,04,15,31,26.10
2017,08,04,15,32,26.10
2017,08,04,15,33,26.10
2017,08,04,15,34,26.20
2017,08,04,15,35,26.20
2017,08,04,15,36,26.30
2017,08,04,15,37,26.30
2017,08,04,15,38,26.30
2017,08,04,15,39,26.30
2017,08,04,15,40,26.30
2017,08,04,15,41,26.40
2017,08,04,15,42,26.40
2017,08,04,15,43,26.50
2017,08,04,15,44,26.50
2017,08,04,15,45,26.50
2017,08,04,15,46,26.50
2017,08,04,15,47,26.60
2017,08,04,15,48,26.60
2017,08,04,15,49,26.60
2017,08,04,15,50,26.60
2017,08,04,15,51,26.60
2017,08,04,15,52,26.60
2017,08,04,15,53,26.60
2017,08,04,15,54,26.60
2017,08,04,15,55,26.70
2017,08,04,15,56,26.80
2017,08,04,15,57,26.80
2017,08,04,15,58,26.90
2017,08,04,15,59,27.00
2017,08,04,16,00,27.10
2017,08,04,16,01,27.10
2017,08,04,16,02,27.10
2017,08,04,16,03,27.10
2017,08,04,16,04,27.10
2017,08,04,16,05,27.10
2017,08,04,16,06,27.20
2017,08,04,16,07,27.20
2017,08,04,16,08,27.20
2017,08,04,16,09,27.20
2017,08,04,16,10,27.30
2017,08,04,16,11,27.30
2017,08,04,16,12,27.30
2017,08,04,16,13,27.40
2017,08,04,16,14,27.40
2017,08,04,16,15,27.50
2017,08,04,16,16,27.60
2017,08,04,16,17,27.60
2017,08,04,16,18,27.60
2017,08,04,16,19,27.60
2017,08,04,16,20,27.60
2017,08,04,16,21,27.70
2017,08,04,16,22,27.70
2017,08,04,16,23,27.70
2017,08,04,16,24,27.70
2017,08,04,16,25,27.70
2017,08,04,16,26,27.70
2017,08,04,16,27,27.80
2017,08,04,16,28,27.80
2017,08,04,16,29,27.80
2017,08,04,16,30,27.80
2017,08,04,16,31,27.80
2017,08,04,16,32,27.80
2017,08,04,16,33,27.80
2017,08,04,16,34,27.80
2017,08,04,16,35,27.80
2017,08,04,16,36,27.80
2017,08,04,16,37,27.80
2017,08,04,16,38,27.70
2017,08,04,16,39,27.70
2017,08,04,16,40,27.70
2017,08,04,16,41,27.70
2017,08,04,16,42,27.70
2017,08,04,16,43,27.70
2017,08,04,16,44,27.70
2017,08,04,16,45,27.70
2017,08,04,16,46,27.80
2017,08,04,16,47,27.80
2017,08,04,16,48,27.70
2017,08,04,16,49,27.70
2017,08,04,16,50,27.70
2017,08,04,16,51,27.70
2017,08,04,16,52,27.70
2017,08,04,16,53,27.70
2017,08,04,16,54,27.60
2017,08,04,16,55,27.60
2017,08,04,16,56,27.60
2017,08,04,16,57,27.60
2017,08,04,16,58,27.70
2017,08,04,16,59,27.70
2017,08,04,17,00,27.70
2017,08,04,17,01,27.70
2017,08,04,17,02,27.70
2017,08,04,17,03,27.80
2017,08,04,17,04,27.80
2017,08,04,17,05,27.80
2017,08,04,17,06,27.90
2017,08,04,17,07,27.90
2017,08,04,17,08,27.90
2017,08,04,17,09,27.80
2017,08,04,17,10,27.80
2017,08,04,17,11,27.80
2017,08,04,17,12,27.80
2017,08,04,17,13,27.80
2017,08,04,17,14,27.70
2017,08,04,17,15,27.70
2017,08,04,17,16,27.70
2017,08,04,17,17,27.70
2017,08,04,17,18,27.60
2017,08,04,17,19,27.60